sat.trackr.live / text

‹ back to catalog

STARLINK-32956

NORAD 63570 · 2025-076B

PAYLOAD ACTIVE UNKNOWN

§ Identity

Operator
Country
US
Launch date
2025-04-14
Launch site
AFETR
Launch vehicle
Mass (kg)
RCS (m²)

Purposes: comms

External: N2YO · Heavens-Above · Gunter

§ Orbital elements

Epoch: 2026-05-24T23:49:47.394624Z

Period
94.27 min
Inclination
42.9956°
Eccentricity
0.0001275
Mean motion
15.27595346 rev/d
Perigee alt
482.1 km
Apogee alt
483.9 km
Semi-major
6,861.1 km
B*
8.0427e-4
RAAN
253.9835°
Arg perigee
274.2831°
Mean anomaly
85.7875°
Rev number
6,345

§ Raw data

STARLINK-329561 63570U 25076B   26144.99290966  .00021946  00000+0  80427-3 0  99932 63570  42.9956 253.9835 0001275 274.2831  85.7875 15.27595346 63450

JSON: /api/v1/satellites/63570 · /tle

For live sub-satellite position, see the globe view (requires WebGL).

§ Visibility from observer

Set your observer location to see the next 7 days of passes ≥ 10°. The values pass through the URL so the page stays shareable.

No JS? Fill the form by hand. The geolocation button needs JavaScript.